星链-2571 (STARLINK-2571 )

导读

STARLINK-2571是美国SpaceX星链星座的一员,于2021年5月4日发射升空。星链项目旨在构建近地轨道卫星网络,为全球偏远、欠发达地区提供高速宽带互联网服务。 作为星链星座的组网卫星,STARLINK-2571运行在低地球轨道,依托大规模星座架构,助力实现全球无死角的互联网覆盖,能支持视频通话、流媒体播放、在线游戏等多种互联网应用,同时也存在空间轨道拥堵、天文观测干扰等争议问题。

基本信息
目录编号:
48401
目录名称:
STARLINK-2571
国际标识:
2021-038BA
轨道中心:
EARTH
卫星名称:
星链-2571
卫星全名:
星链-2571 (STARLINK-2571 )
卫星状态:
在轨 (已飞行1949 天)
发射日期:
2021-05-04 UTC
国别 :
美国 (US)
星等 :
--
轨道信息
数据来源 国际轨道数据 AOE轨道数据
星历时间 2026-09-03T15:56:32+0800
21小时前
查看轨道信息
2026-09-03T22:00:00+0800
15小时前
查看轨道信息
半长轴 6848.924km 6848.875km
偏心率 0.0001263 0.0001273
轨道倾角 53.160° 53.162°
近地点辐角 92.111° 89.653°
升交点赤经 226.210° 225.039°
平近点角 268.004° 223.055°
近地点 469.921km 469.866km
远地点 471.653km 471.61km
周期 94.014分钟 94.013分钟
每日圈数 15.316845 15.31701
详细信息
固有亮度:
5
最大亮度:
2.5
卫星平台:
Starlink V1.0
覆盖范围:
全球
运营商:
太空探索技术公司
运营商所在国:
美国
制造商(研发单位):
太空探索技术公司
制造商所在国:
美国
使用方式:
暂无
卫星简介
星链(Starlink)计划是由太空探索技术公司(SpaceX)提出的一个巨型低轨卫星互联网星座项目,计划在2019年至2024年间在太空搭建由约1.2万颗卫星组成的“星链”网络,其中1584颗将部署在地球上空550千米处的近地轨道,并从2020年开始工作。该卫星仍在工作。
2D轨道图
3D轨道图
轨道高度分析图
轨道倾角分析图
轨道综合分析图
查看轨道综合分析图
交会数据列表
事件ID 空间交会对象 最接近时刻(TCA) 交会距离 交会风险概率(CRP) 交会风险指数(CRI) 操作
CDM_260905-062004-840105-305221
2026-09-05T
06:20:06+0000
1.632 km
极远距离
5.029286E-6 低风险 0.49
CDM_260903-182304-840106-974922
2026-09-03T
18:23:33+0000
2.479 km
极远距离
1.718929E-6 低风险 0.4
CDM_260903-223304-840105-348721
2026-09-03T
22:33:34+0000
2.781 km
极远距离
1.435687E-6 低风险 0.38
CDM_260904-051604-283704-840121
2026-09-04T
05:16:33+0000
2.887 km
极远距离
1.385092E-6 低风险 0.38
CDM_260903-041204-840106-884222
2026-09-03T
04:12:23+0000
2.899 km
极远距离
9.057333E-7 极低风险 0.34